COSMOS 1275 DEB

Satellite information

Favourite Embed

Satellite Type and Status

DEBRISIN ORBIT

Key statistics

Satellite COSMOS 1275 DEB at a glance.

Uptime

16104

Days in orbit

Revolutions

≈ 13.6

Per day

Orbit

LEO

Low Earth Orbit

Inclination

82.9

Latest

Satellite identification and parameters

Extended collection of information and parameters for COSMOS 1275 DEB.

Object identification

Identified? True

Debris? True

Object name: COSMOS 1275 DEB

International designator: 1981-053JG

Object number (NORAD): 14440

Object ID (CCSDS): 14440

Country: COMMONWEALTH OF INDEPENDENT STATES (CIS)

Current information (Y/N): Y

RCS size: SMALL

Orbital parameters

Period: 105.569 minutes

Inclination: 82.9211 deg

SMA: 7399.195 km

Apoapsis: 1104.683 km

Periapsis: 937.437 km

RAAN: 89.2283 deg

Eccentricy: 0.0113016

Argument of periapsis: 279.5046 deg

Mean anomaly: 149.6639 deg

Mean motion: 13.64036734 rev/day

Mean motion (dot): 0.00000164 rev/day2

B* drag term: 0.00018089 1/REarth

Two-line elements (TLE)

Creation date: July 6, 2025, 4:10 a.m.

Reference frame: TEME

Reference center: EARTH

Epoch: July 5, 2025, 6:54 p.m. UTC

TLE line 0: 0 COSMOS 1275 DEB

TLE line 1: 1 14440U 81053JG 25186.78803192 .00000164 00000-0 18089-3 0 9990

TLE line 2: 2 14440 82.9211 89.2283 0113016 279.5046 149.6639 13.64036734166340

Live tracking on map

Real-time ground track for satellite COSMOS 1275 DEB.

In-orbit conjunctions

A list of the most updated potential collisions computed for object COSMOS 1275 DEB.

Target Orbit TCA Probability of collision Miss distance Type
SL-24 R/B SSO 2025-05-08 08:45:15 0.0002673984 126.0 (m) ROCKET BODY
DELTA 1 DEB SSO 2025-03-23 06:00:57 0.000281723 70.0 (m) DEBRIS
SCOUT A-1 R/B LEO 2024-12-20 08:56:13 0.0001132902 493.0 (m) ROCKET BODY

Associated space launch

Navigation satellite providing location information for the Tsiklon-B navigation system

COSMOS 1275 DEB was lifted into orbit during the mission ‘Kosmos-3M | Parus 27’, on board a Kosmos-3M space rocket.

The launch took place on June 4, 1981, 3:41 p.m. from 132/2.

For more information about the launch, click the button.

Launch to space Kosmos-3M | Parus 27
Kosmos-3M | Parus 27

Agency: N/A

Status: Launch Successful

Launch date: June 4, 1981, 3:41 p.m. UTC

Rocket: Kosmos-3M

Launch pad: 132/2

Location: Plesetsk Cosmodrome, Russian Federation

...

Latest news about this satellite

There are no fresh news available about this satellite. Check back as we update our databases every day.


Newsletter sign-up

Weekly statistics, charts and insights to help you stay on top of the space industry.